FW0428 Weather Reports


time (UTC)temp
C
wind
direction
speed
KPH
gust
KPH
rain 1hr
cm
rain 24hr
cm
rain mn
cm
humidity
%
barometer
mb
20260509201653 30 130 0.0 3.2 0.00 0.00 0.00 63 1007.2
20260509191543 30 146 0.0 8.0 0.00 0.00 0.00 61 1008.0
20260509170145 27 82 1.6 6.4 0.00 0.00 0.00 75 1008.9
20260509164702 27 131 0.0 6.4 0.00 0.00 0.00 74 1009.1
20260509161611 27 91 0.0 3.2 0.00 0.00 0.00 75 1009.0
20260509160146 26 119 0.0 3.2 0.00 0.00 0.00 79 1008.9
20260509153108 25 282 0.0 0.0 0.00 0.00 0.00 85 1009.0
20260509151617 23 87 0.0 4.8 0.00 0.00 0.00 90 1008.8
20260509150112 22 102 0.0 0.0 0.00 0.00 0.00 92 1009.1
20260509144616 22 102 0.0 0.0 0.00 0.00 0.00 92 1009.3
20260509141519 22 102 0.0 0.0 0.00 0.00 0.00 92 1009.4
20260509134629 22 115 0.0 1.6 0.00 0.00 0.00 93 1009.2
20260509133114 21 90 0.0 1.6 0.00 0.00 0.00 94 1009.0
20260509131559 21 91 0.0 0.0 0.00 0.00 0.00 94 1009.3
20260509130120 21 82 0.0 1.6 0.00 0.00 0.00 94 1009.2
20260509124638 21 84 0.0 3.2 0.00 0.00 0.00 94 1009.1
20260509111539 20 94 0.0 3.2 0.00 0.00 0.00 94 1008.0
20260509110047 20 90 0.0 1.6 0.00 0.00 0.00 94 1007.5
20260509104558 20 297 0.0 0.0 0.00 0.00 0.00 94 1007.4
20260509103111 20 102 0.0 1.6 0.00 0.00 0.00 94 1007.6
20260509091550 20 142 0.0 0.0 0.00 0.00 0.00 92 1008.3
20260509074643 21 259 0.0 0.0 0.00 0.00 0.00 90 1009.4
20260509070028 21 257 0.0 1.6 0.00 0.00 0.00 89 1009.3
20260509064617 21 212 0.0 3.2 0.00 0.00 0.00 88 1009.2
20260509063043 21 252 0.0 1.6 0.00 0.00 0.00 88 1008.6
20260509061526 21 228 0.0 3.2 0.00 0.00 0.00 87 1009.2
20260509060106 21 267 0.0 0.0 0.00 0.00 0.00 87 1009.8
20260509054556 21 267 0.0 0.0 0.00 0.00 0.00 86 1010.1
20260509053005 21 271 0.0 0.0 0.00 0.00 0.00 86 1010.2
20260509051517 21 267 0.0 0.0 0.00 0.00 0.00 86 1010.0
20260509050109 21 266 0.0 0.0 0.00 0.00 0.00 86 1009.9
20260509040109 22 273 0.0 0.0 0.00 0.00 0.00 84 1009.1
20260509034636 22 255 0.0 1.6 0.00 0.00 0.00 84 1008.8
20260509024609 22 277 0.0 3.2 0.00 0.00 0.00 81 1008.4
20260509021554 22 211 0.0 1.6 0.00 0.00 0.00 80 1008.1
20260509020011 22 265 0.0 0.0 0.00 0.00 0.00 79 1008.0
20260509003157 23 250 0.0 0.0 0.00 0.00 0.00 72 1007.3
20260508234650 25 129 0.0 4.8 0.00 0.00 0.00 69 1007.2
20260508221519 26 298 0.0 3.2 0.00 0.00 0.00 62 1008.4
20260508220155 26 192 0.0 1.6 0.00 0.00 0.00 62 1008.3
20260508214655 25 90 0.0 4.8 0.00 0.00 0.00 62 1008.6
20260508211659 26 279 0.0 3.2 0.00 0.00 0.00 61 1008.4
20260508210159 26 43 0.0 3.2 0.00 0.00 0.00 61 1008.5
20260508204615 26 257 0.0 3.2 0.00 0.00 0.00 60 1008.8